| time (UTC) | temp F | wind direction | speed MPH | gust MPH | rain 1hr in | rain 24hr in | rain mn in | humidity % | barometer mb |
| 20260906230004 | 75 | 71 | 2.0 | 3.0 | 0.00 | 0.00 | 0.00 | 68 | 1019.6 |
| 20260906225003 | 76 | 69 | 1.0 | 3.0 | 0.00 | 0.00 | 0.00 | 66 | 1019.8 |
| 20260906224004 | 76 | 87 | 0.0 | 2.0 | 0.00 | 0.00 | 0.00 | 67 | 1020.0 |
| 20260906223003 | 76 | 348 | 1.0 | 3.0 | 0.00 | 0.00 | 0.00 | 66 | 1020.2 |
| 20260906222003 | 77 | 88 | 1.0 | 5.0 | 0.00 | 0.00 | 0.00 | 65 | 1020.4 |
| 20260906220003 | 77 | 76 | 1.0 | 3.0 | 0.00 | 0.00 | 0.00 | 65 | 1020.4 |
| 20260906215004 | 78 | 280 | 2.0 | 3.0 | 0.00 | 0.00 | 0.00 | 62 | 1020.3 |
| 20260906214004 | 79 | 296 | 1.0 | 3.0 | 0.00 | 0.00 | 0.00 | 61 | 1020.4 |
| 20260906213004 | 80 | 266 | 2.0 | 6.0 | 0.00 | 0.00 | 0.00 | 59 | 1020.2 |
| 20260906212004 | 85 | 77 | 1.0 | 3.0 | 0.00 | 0.00 | 0.00 | 54 | 1020.1 |
| 20260906211004 | 82 | 87 | 1.0 | 6.0 | 0.00 | 0.00 | 0.00 | 57 | 1020.2 |
| 20260906210004 | 80 | 99 | 2.0 | 5.0 | 0.00 | 0.00 | 0.00 | 58 | 1020.3 |
| 20260906204004 | 79 | 326 | 2.0 | 3.0 | 0.00 | 0.00 | 0.00 | 59 | 1020.3 |
| 20260906203003 | 81 | 23 | 2.0 | 5.0 | 0.00 | 0.00 | 0.00 | 58 | 1020.4 |
| 20260906202003 | 79 | 298 | 2.0 | 3.0 | 0.00 | 0.00 | 0.00 | 61 | 1020.5 |
| 20260906200003 | 77 | 50 | 0.0 | 1.0 | 0.00 | 0.00 | 0.00 | 64 | 1020.6 |
| 20260906195003 | 78 | 345 | 0.0 | 2.0 | 0.00 | 0.00 | 0.00 | 65 | 1020.5 |
| 20260906194004 | 78 | 55 | 0.0 | 2.0 | 0.00 | 0.00 | 0.00 | 63 | 1020.5 |
| 20260906193004 | 77 | 301 | 1.0 | 2.0 | 0.00 | 0.00 | 0.00 | 62 | 1020.6 |
| 20260906191004 | 78 | 121 | 0.0 | 6.0 | 0.00 | 0.00 | 0.00 | 62 | 1020.7 |
| 20260906185004 | 76 | 127 | 2.0 | 3.0 | 0.00 | 0.00 | 0.00 | 64 | 1020.9 |
| 20260906184004 | 77 | 202 | 1.0 | 3.0 | 0.00 | 0.00 | 0.00 | 63 | 1021.1 |
| 20260906183004 | 80 | 102 | 1.0 | 5.0 | 0.00 | 0.00 | 0.00 | 61 | 1021.3 |
| 20260906182004 | 79 | 288 | 2.0 | 6.0 | 0.00 | 0.00 | 0.00 | 62 | 1021.2 |
| 20260906181004 | 76 | 284 | 3.0 | 6.0 | 0.00 | 0.00 | 0.00 | 65 | 1021.2 |
| 20260906180004 | 77 | 70 | 1.0 | 6.0 | 0.00 | 0.00 | 0.00 | 64 | 1021.2 |
| 20260906175004 | 78 | 284 | 1.0 | 6.0 | 0.00 | 0.00 | 0.00 | 62 | 1021.2 |
| 20260906173004 | 76 | 184 | 2.0 | 6.0 | 0.00 | 0.00 | 0.00 | 65 | 1021.5 |
| 20260906172004 | 78 | 286 | 2.0 | 3.0 | 0.00 | 0.00 | 0.00 | 63 | 1021.6 |
| 20260906170003 | 77 | 27 | 1.0 | 3.0 | 0.00 | 0.00 | 0.00 | 64 | 1021.4 |
| 20260906165004 | 76 | 164 | 0.0 | 3.0 | 0.00 | 0.00 | 0.00 | 64 | 1021.6 |
| 20260906164004 | 75 | 336 | 2.0 | 3.0 | 0.00 | 0.00 | 0.00 | 65 | 1021.8 |
| 20260906163004 | 76 | 166 | 1.0 | 5.0 | 0.00 | 0.00 | 0.00 | 64 | 1021.7 |
| 20260906162004 | 75 | 277 | 3.0 | 5.0 | 0.00 | 0.00 | 0.00 | 64 | 1021.8 |
| 20260906161004 | 75 | 309 | 1.0 | 5.0 | 0.00 | 0.00 | 0.00 | 66 | 1021.7 |
| 20260906160004 | 75 | 206 | 1.0 | 5.0 | 0.00 | 0.00 | 0.00 | 63 | 1021.8 |
| 20260906155003 | 75 | 311 | 1.0 | 5.0 | 0.00 | 0.00 | 0.00 | 61 | 1021.7 |
| 20260906154004 | 75 | 171 | 1.0 | 5.0 | 0.00 | 0.00 | 0.00 | 64 | 1021.6 |
| 20260906153004 | 74 | 68 | 2.0 | 5.0 | 0.00 | 0.00 | 0.00 | 67 | 1021.8 |
| 20260906152004 | 74 | 104 | 2.0 | 5.0 | 0.00 | 0.00 | 0.00 | 70 | 1021.9 |
| 20260906151003 | 73 | 307 | 2.0 | 5.0 | 0.00 | 0.00 | 0.00 | 68 | 1021.9 |
| 20260906145004 | 72 | 40 | 1.0 | 3.0 | 0.00 | 0.00 | 0.00 | 79 | 1021.9 |
| 20260906144003 | 71 | 356 | 2.0 | 3.0 | 0.00 | 0.00 | 0.00 | 81 | 1021.9 |
| 20260906143003 | 70 | 358 | 1.0 | 3.0 | 0.00 | 0.00 | 0.00 | 83 | 1022.1 |
| 20260906142004 | 71 | 36 | 1.0 | 3.0 | 0.00 | 0.00 | 0.00 | 81 | 1022.0 |
| 20260906141003 | 70 | 347 | 2.0 | 2.0 | 0.00 | 0.00 | 0.00 | 83 | 1022.0 |
| 20260906140004 | 69 | 6 | 1.0 | 1.0 | 0.00 | 0.00 | 0.00 | 84 | 1022.0 |
| 20260906135004 | 67 | 46 | 1.0 | 2.0 | 0.00 | 0.00 | 0.00 | 86 | 1022.0 |
| 20260906133004 | 65 | 1 | 0.0 | 2.0 | 0.00 | 0.00 | 0.00 | 90 | 1021.9 |
| 20260906131004 | 60 | 15 | 1.0 | 2.0 | 0.00 | 0.00 | 0.00 | 99 | 1022.0 |
| 20260906130004 | 60 | 346 | 0.0 | 2.0 | 0.00 | 0.00 | 0.00 | 99 | 1021.8 |
| 20260906125003 | 59 | 320 | 0.0 | 2.0 | 0.00 | 0.00 | 0.00 | 99 | 1021.8 |
| 20260906124004 | 55 | 9 | 1.0 | 5.0 | 0.00 | 0.00 | 0.00 | 99 | 1021.8 |
| 20260906123004 | 54 | 57 | 1.0 | 2.0 | 0.00 | 0.00 | 0.00 | 99 | 1021.8 |
| 20260906120004 | 52 | 3 | 1.0 | 2.0 | 0.00 | 0.00 | 0.00 | 99 | 1021.7 |
| 20260906115004 | 52 | 349 | 1.0 | 2.0 | 0.00 | 0.00 | 0.00 | 99 | 1021.7 |
| 20260906114004 | 51 | 12 | 0.0 | 5.0 | 0.00 | 0.00 | 0.00 | 99 | 1021.4 |
| 20260906113003 | 52 | 18 | 1.0 | 3.0 | 0.00 | 0.00 | 0.00 | 99 | 1021.4 |
| 20260906112004 | 52 | 28 | 0.0 | 2.0 | 0.00 | 0.00 | 0.00 | 99 | 1021.2 |
| 20260906111004 | 52 | 27 | 1.0 | 2.0 | 0.00 | 0.00 | 0.00 | 99 | 1021.2 |
| 20260906110004 | 52 | 2 | 1.0 | 2.0 | 0.00 | 0.00 | 0.00 | 99 | 1021.0 |
| 20260906105004 | 52 | 351 | 1.0 | 2.0 | 0.00 | 0.00 | 0.00 | 99 | 1020.9 |
| 20260906103004 | 52 | 21 | 1.0 | 2.0 | 0.00 | 0.00 | 0.00 | 99 | 1021.0 |
| 20260906101004 | 53 | 358 | 1.0 | 2.0 | 0.00 | 0.00 | 0.00 | 99 | 1020.9 |
| 20260906095004 | 53 | 352 | 1.0 | 1.0 | 0.00 | 0.00 | 0.00 | 99 | 1020.9 |
| 20260906094004 | 53 | 1 | 0.0 | 1.0 | 0.00 | 0.00 | 0.00 | 99 | 1020.7 |
| 20260906093003 | 53 | 351 | 0.0 | 2.0 | 0.00 | 0.00 | 0.00 | 99 | 1020.7 |
| 20260906092004 | 53 | 9 | 1.0 | 2.0 | 0.00 | 0.00 | 0.00 | 99 | 1020.6 |
| 20260906091004 | 54 | 24 | 1.0 | 2.0 | 0.00 | 0.00 | 0.00 | 99 | 1020.8 |
| 20260906085003 | 54 | 45 | 0.0 | 1.0 | 0.00 | 0.00 | 0.00 | 99 | 1020.8 |
| 20260906083003 | 54 | 50 | 0.0 | 2.0 | 0.00 | 0.00 | 0.00 | 99 | 1020.8 |
| 20260906081003 | 54 | 18 | 1.0 | 2.0 | 0.00 | 0.00 | 0.00 | 99 | 1020.4 |
| 20260906080004 | 54 | 18 | 0.0 | 1.0 | 0.00 | 0.00 | 0.00 | 99 | 1020.3 |
| 20260906075004 | 55 | 23 | 1.0 | 1.0 | 0.00 | 0.00 | 0.00 | 99 | 1020.3 |
| 20260906074004 | 55 | 355 | 1.0 | 2.0 | 0.00 | 0.00 | 0.00 | 99 | 1020.5 |
| 20260906073003 | 55 | 356 | 0.0 | 1.0 | 0.00 | 0.00 | 0.00 | 99 | 1020.4 |
| 20260906072004 | 54 | 11 | 0.0 | 1.0 | 0.00 | 0.00 | 0.00 | 99 | 1020.4 |
| 20260906071004 | 55 | 14 | 1.0 | 1.0 | 0.00 | 0.00 | 0.00 | 99 | 1020.4 |
| 20260906070004 | 55 | 336 | 1.0 | 1.0 | 0.00 | 0.00 | 0.00 | 99 | 1020.3 |
| 20260906065004 | 55 | 17 | 1.0 | 1.0 | 0.00 | 0.00 | 0.00 | 99 | 1020.5 |
| 20260906064004 | 55 | 14 | 1.0 | 2.0 | 0.00 | 0.00 | 0.00 | 99 | 1020.5 |
| 20260906062004 | 55 | 339 | 1.0 | 2.0 | 0.00 | 0.00 | 0.00 | 99 | 1020.5 |
| 20260906061004 | 56 | 2 | 1.0 | 2.0 | 0.00 | 0.00 | 0.00 | 99 | 1020.4 |
| 20260906060004 | 56 | 335 | 1.0 | 2.0 | 0.00 | 0.00 | 0.00 | 99 | 1020.3 |
| 20260906055004 | 56 | 330 | 1.0 | 1.0 | 0.00 | 0.00 | 0.00 | 99 | 1020.1 |
| 20260906054003 | 56 | 322 | 0.0 | 1.0 | 0.00 | 0.00 | 0.00 | 99 | 1020.0 |
| 20260906053004 | 56 | 341 | 1.0 | 1.0 | 0.00 | 0.00 | 0.00 | 99 | 1020.0 |
| 20260906052004 | 56 | 348 | 1.0 | 1.0 | 0.00 | 0.00 | 0.00 | 99 | 1019.5 |
| 20260906051003 | 57 | 352 | 1.0 | 1.0 | 0.00 | 0.00 | 0.00 | 99 | 1019.6 |
| 20260906050003 | 57 | 358 | 1.0 | 1.0 | 0.00 | 0.00 | 0.00 | 99 | 1019.6 |
| 20260906045004 | 57 | 358 | 0.0 | 1.0 | 0.00 | 0.00 | 0.00 | 99 | 1019.8 |
| 20260906044003 | 57 | 37 | 1.0 | 1.0 | 0.00 | 0.00 | 0.00 | 99 | 1019.6 |
| 20260906043003 | 57 | 342 | 1.0 | 2.0 | 0.00 | 0.00 | 0.00 | 99 | 1019.6 |
| 20260906042004 | 58 | 31 | 1.0 | 2.0 | 0.00 | 0.00 | 0.00 | 99 | 1019.6 |
| 20260906041003 | 57 | 357 | 1.0 | 1.0 | 0.00 | 0.00 | 0.00 | 99 | 1019.4 |
| 20260906040004 | 58 | 351 | 0.0 | 1.0 | 0.00 | 0.00 | 0.00 | 99 | 1019.5 |
| 20260906035003 | 58 | 0 | 0.0 | 1.0 | 0.00 | 0.00 | 0.00 | 99 | 1019.5 |
| 20260906033004 | 58 | 6 | 0.0 | 1.0 | 0.00 | 0.00 | 0.00 | 99 | 1019.5 |
| 20260906032004 | 59 | 356 | 1.0 | 2.0 | 0.00 | 0.00 | 0.00 | 99 | 1019.3 |
| 20260906031003 | 59 | 339 | 1.0 | 1.0 | 0.00 | 0.00 | 0.00 | 99 | 1019.3 |
| 20260906030004 | 59 | 336 | 0.0 | 1.0 | 0.00 | 0.00 | 0.00 | 99 | 1019.3 |
| 20260906025003 | 60 | 1 | 1.0 | 1.0 | 0.00 | 0.00 | 0.00 | 98 | 1019.1 |
| 20260906024004 | 60 | 327 | 0.0 | 1.0 | 0.00 | 0.00 | 0.00 | 98 | 1019.2 |
| 20260906022004 | 61 | 17 | 1.0 | 1.0 | 0.00 | 0.00 | 0.00 | 97 | 1019.1 |
| 20260906020004 | 61 | 357 | 1.0 | 2.0 | 0.00 | 0.00 | 0.00 | 96 | 1019.0 |
| 20260906015004 | 62 | 325 | 0.0 | 2.0 | 0.00 | 0.00 | 0.00 | 95 | 1018.9 |
| 20260906012004 | 63 | 322 | 1.0 | 2.0 | 0.00 | 0.00 | 0.00 | 92 | 1018.6 |
| 20260906011003 | 64 | 330 | 1.0 | 1.0 | 0.00 | 0.00 | 0.00 | 91 | 1018.5 |
| 20260906010004 | 65 | 22 | 0.0 | 1.0 | 0.00 | 0.00 | 0.00 | 89 | 1018.3 |
| 20260906005004 | 66 | 35 | 0.0 | 1.0 | 0.00 | 0.00 | 0.00 | 88 | 1018.4 |
| 20260906004004 | 67 | 7 | 0.0 | 1.0 | 0.00 | 0.00 | 0.00 | 86 | 1018.3 |
| 20260906003003 | 68 | 36 | 0.0 | 1.0 | 0.00 | 0.00 | 0.00 | 84 | 1018.4 |
| 20260906002003 | 69 | 352 | 0.0 | 1.0 | 0.00 | 0.00 | 0.00 | 82 | 1018.3 |
| 20260906001004 | 70 | 11 | 0.0 | 1.0 | 0.00 | 0.00 | 0.00 | 78 | 1018.3 |
| 20260906000004 | 71 | 350 | 1.0 | 2.0 | 0.00 | 0.00 | 0.00 | 75 | 1018.2 |
| 20260905235004 | 72 | 8 | 1.0 | 2.0 | 0.00 | 0.00 | 0.00 | 73 | 1018.2 |
| 20260905234004 | 73 | 3 | 1.0 | 3.0 | 0.00 | 0.00 | 0.00 | 71 | 1018.2 |
| 20260905233003 | 74 | 309 | 1.0 | 2.0 | 0.00 | 0.00 | 0.00 | 69 | 1018.1 |
| 20260905232004 | 75 | 77 | 1.0 | 3.0 | 0.00 | 0.01 | 0.00 | 68 | 1018.3 |
| 20260905231004 | 75 | 47 | 1.0 | 3.0 | 0.00 | 0.02 | 0.00 | 66 | 1018.4 |